Location: Agadir-Ikarkaouin
(31.1503°N, 9.0246°W)
Time: 03:02:16
(UTC+00:00)

Cosmos 1842 - Pass Details

Date: 18 September 2020
Orbit: 521 x 536 km, 82.5° (Epoch: 23 October)

Event Time Altitude Azimuth Distance (km) Brightness Sun altitude
Rises 19:05:31 0° 5° (N) 2,651 6.8 -6.8°
Reaches altitude 10° 19:07:50 10° 16° (NNE) 1,760 5.8 -7.3°
Maximum altitude 19:11:18 32° 80° (E) 920 4.0 -8.1°
Drops below altitude 10° 19:14:46 10° 145° (SE) 1,755 5.5 -8.8°
Sets 19:17:04 0° 155° (SSE) 2,641 6.5 -9.3°
